Weather in Jieshi

China     22°53′45″N   115°53′01″E
temp.,
°C
wind,
m/s
gust,
m/s
humid.,
%
clouds,
%
prec.,
mm/h
press.,
hPa
HPBL,
m
13 april, tue
tue1323:00+22ssw11845 0.0 101517
02:00+22sw11885 0.0 101411
05:00+21wsw11911 0.0 101411
08:00+24sw22741 0.0 1015428
11:00+30ssw43506 0.0 10151285
14:00+31ssw64455 0.0 10121336
17:00+28ssw54530 0.0 1011821
20:00+24ssw24753 0.0 1013194
14 april, wed
wed1423:00+23ese22843 0.0 101563
02:00+21e578696 0.1 1014351
05:00+21ene5683100 0.0 1015370
08:00+21ene5678100 0.0 1016536
11:00+24ene666658 0.0 1016834
14:00+25e655958 0.0 10141084
17:00+24e766418 0.0 1013779
20:00+19e678224 0.0 1015470
15 april, thu
thu1523:00+19ene6880100 0.0 1016749
02:00+19ene5880100 0.1 1015721
05:00+18ene5780100 0.0 1015567
08:00+19ene457592 0.0 1016516
11:00+25ese325511 0.0 10151011
14:00+28sse53485 0.0 10121302
17:00+25sse436098 0.0 1012525
20:00+21se2377100 0.0 1014204
16 april, fri
fri1623:00+20e2380100 0.0 1015197
02:00+19ene2483100 0.0 1015192
05:00+18ne2387100 0.0 101593
08:00+21ne1271100 0.0 1017462
11:00+27ese335289 0.0 10161241
14:00+28sse745442 0.0 1014797
17:00+24se566855 0.0 1014576
20:00+21ese358154 0.0 1016379
17 april, sat
sat1723:00+21ene3578100 0.0 1017273
02:00+20ene367515 0.0 1017318
05:00
08:00+23ene57495 0.0 1018643
11:00+28e66375 0.0 10181146
14:00+29ese75375 0.0 10151330
17:00+26e77445 0.0 1015785
20:00+21ene696322 0.0 1018484